Location: Casone le Fosse
(44.6547°N, 12.1103°E)
Time: 08:30:57
(UTC+00:00)

USA 215 - Pass Details

Date: 29 October 2020
Orbit: 1102 x 1106 km, 123.0° (Epoch: 23 November)

Event Time Altitude Azimuth Distance (km) Brightness Sun altitude
Exits shadow 19:57:29 35° 318° (NW) 1,706 4.5 -41.4°
Drops below altitude 10° 20:01:00 10° 312° (NW) 2,965 6.1 -41.9°
Sets 20:03:30 0° 310° (NW) 3,925 6.9 -42.3°
